User: anonymous
Location: Oshawa
(43.9000°N, 78.8670°W)
Time: 09:36:08
(UTC-04:00)
Language:

Cosmos 1500 - Orbit

View from above orbital plane
View from above orbital plane
View from above satellite
View from above satellite

Ground track
Ground track

The orbit data is extracted from the following two-line orbital elements,

1 14372U 83099A   14107.93794322  .00006819  00000-0  40672-3 0  5136
2 14372 082.5212 041.8193 0019180 128.4576 276.0363 15.10838901662734
Epoch (UTC): 17 April 2014 22:30:38
Eccentricity: 0.0019180
inclination: 82.5212°
perigee height: 520 km
apogee height: 547 km
right ascension of ascending node: 41.8193°
argument of perigee: 128.4576°
revolutions per day: 15.10838901
mean anomaly at epoch: 276.0363°
orbit number at epoch: 66273

The dashed part of the orbit path shows where the satellite is in the earth's shadow,  

DLR